Location: Poughquag
(41.6090°N, 73.6820°W)
Time: 21:45:14
(UTC-05:00)

N. Korean satellite - Pass Details

Date: 30 January 2021
Orbit: 451 x 503 km, 97.2° (Epoch: 24 February)

Event Time Altitude Azimuth Distance (km) Brightness Sun altitude
Rises 17:29:36 0° 205° (SSW) 2,567 11.0 -4.5°
Reaches altitude 10° 17:32:18 10° 227° (SW) 1,682 10.6 -5.0°
Maximum altitude 17:34:37 16° 267° (W) 1,343 10.2 -5.4°
Drops below altitude 10° 17:36:55 10° 307° (NW) 1,673 9.8 -5.8°
Sets 17:39:36 0° 329° (NNW) 2,547 10.4 -6.3°
